Location: Arthez
(43.0833°N, 0.2500°W)
Time: 00:33:22
(UTC+00:00)

OE (NEXTSAT) - Pass Details

Date: 23 October 2021
Orbit: 419 x 427 km, 46.0° (Epoch: 27 November)

Event Time Altitude Azimuth Distance (km) Brightness Sun altitude
Rises 18:16:33 0° 252° (WSW) 2,374 9.7 -13.6°
Reaches altitude 10° 18:18:40 10° 253° (WSW) 1,508 8.4 -14.0°
Maximum altitude 18:22:04 84° 340° (NNW) 430 4.2 -14.6°
Enters shadow 18:23:35 31° 68° (ENE) 771 5.0 -14.9°
